一网星座-0297星 (ONEWEB-0297 )

导读

ONEWEB-0297是英国OneWeb卫星互联网星座的一颗低轨卫星,于2021年8月21日发射入轨。它隶属于OneWeb的全球低轨卫星通信网络项目,该项目规划在1200公里高度的近地轨道部署数百颗卫星,通过Ku波段提供全球高速互联网接入服务。作为OneWeb星座的组成部分,它为全球偏远地区通信、网络覆盖补充提供支持,助力构建天地一体化的高速通信网络。

Basic Information
目录编号:
49086
目录名称:
ONEWEB-0297
国际标识:
2021-075M
轨道中心:
EARTH
卫星名称:
一网星座-0297星
卫星全名:
一网星座-0297星 (ONEWEB-0297 )
卫星状态:
在轨 (已飞行1802 天)
发射日期:
2021-08-21 UTC
国别 :
英国 (GB)
星等 :
--
Orbit Information
数据来源 国际轨道数据 AOE轨道数据
星历时间 2026-07-27T14:56:04+0800
18小时前
查看轨道信息
2026-07-22T07:00:00+0800
6天前
查看轨道信息
半长轴 7591.857km 7591.854km
偏心率 0.0001811 0.000173
轨道倾角 87.897° 87.897°
近地点辐角 95.525° 89.583°
升交点赤经 342.704° 343.763°
平近点角 264.608° 298.947°
近地点 1212.345km 1212.403km
远地点 1215.095km 1215.031km
周期 109.719分钟 109.719分钟
每日圈数 13.124441 13.124448
Detailed Information
平衡模式:
三轴稳定
覆盖范围:
全球
运营商:
一网卫星公司
运营商所在国:
英国
制造商(研发单位):
一网卫星公司
制造商所在国:
英国
使用方式:
暂无
Satellite Introduction
OneWeb卫星网络由648颗重约125公斤的微型卫星组成,运行在1200公里的轨道上。 每颗卫星都能够提供至少每秒8千兆位的吞吐量,以使用其高吞吐量的Ku频段有效载荷为家庭和移动平台提供互联网接入。该卫星仍在工作。
2D Orbit Map
3D Orbit Map
Orbit Altitude Analysis Chart
Orbit Inclination Analysis Chart
Orbit Comprehensive Analysis Chart
View Comprehensive Chart